Helicity
182 369 314 179 1 16 60 77 64 76 66 59 68 76 107 74 62 64 61 73 90 95 88 89 80 85 75 61 75 91 93 80 72 60 54 56 59 82 78 66 63 39 41
170 247 290 164 25 -12 67 78 63 60 57 44 62 82 93 81 79 61 59 81 90 87 85 77 74 68 65 70 85 80 73 64 61 67 60 72 66 64 52 58 57 32 45
136 151 263 188 195 207 93 99 55 65 58 31 35 61 81 86 78 84 101 106 107 99 89 72 60 56 56 73 85 84 83 77 75 79 94 78 58 60 62 55 43 27 43
164 196 285 194 192 214 138 119 63 54 52 43 20 25 57 81 82 88 84 71 75 96 90 71 53 56 59 79 94 102 107 111 105 99 70 67 56 53 38 40 36 38 25
204 261 250 240 147 161 232 211 144 92 66 45 33 29 49 65 81 92 104 110 90 89 103 89 56 57 71 80 84 89 86 92 78 77 60 50 34 30 36 39 35 28 20
227 199 169 220 293 326 163 243 206 124 82 45 33 33 34 35 40 54 58 50 50 120 154 86 62 67 90 75 70 71 73 71 82 72 43 27 22 39 34 32 29 19 14
177 263 203 224 214 312 191 133 235 197 87 58 18 28 17 19 31 46 35 28 64 115 122 109 102 89 75 91 65 74 68 56 74 58 27 13 28 37 31 26 18 11 21
194 214 217 299 260 250 317 137 157 220 180 86 37 28 21 29 25 32 37 71 91 119 160 186 157 73 80 88 58 58 53 33 18 30 43 26 34 40 48 26 14 22 46
95 152 203 257 278 291 261 269 146 156 193 179 71 25 27 37 23 20 34 78 43 43 130 162 54 73 57 56 62 45 55 59 37 28 57 11 43 60 51 19 10 30 29
196 119 191 245 299 250 211 242 287 316 215 191 164 80 28 34 48 14 13 51 50 64 123 116 26 49 63 88 77 54 69 79 48 42 38 11 29 61 58 24 35 47 35
209 229 234 238 330 329 229 281 265 340 287 213 228 162 50 37 36 25 21 46 40 57 81 182 21 67 64 91 62 67 63 70 64 49 40 11 17 50 59 31 34 48 17
128 143 170 212 229 283 290 221 148 171 265 219 188 163 114 39 33 42 28 39 23 18 25 -3 22 35 101 115 84 51 51 58 60 55 31 7 15 36 39 23 33 42 16
22 43 118 141 159 205 195 120 139 204 209 221 228 196 155 62 38 38 42 38 0 -11 65 25 62 75 138 117 102 84 63 75 60 52 20 5 21 14 30 29 28 43 22
-42 -31 36 62 120 97 186 203 213 171 230 239 270 197 189 131 42 50 72 60 60 2 13 14 71 119 151 117 99 96 59 78 74 53 24 20 29 18 20 24 16 31 28
-156 -109 -89 -40 3 63 40 103 184 229 216 161 173 189 216 223 158 77 62 88 64 27 14 11 113 119 169 130 109 109 102 82 89 95 58 30 27 16 6 26 3 47 44
-158 -194 -180 -143 -68 -56 59 81 78 134 179 176 168 195 235 218 168 145 77 80 99 47 25 13 77 77 183 142 114 116 116 104 136 112 65 42 40 4 7 16 31 41 36
-129 -175 -218 -210 -140 -89 -40 44 79 65 115 157 157 224 224 219 219 118 44 98 101 93 88 56 40 92 175 153 124 126 133 101 120 89 59 55 26 17 13 26 23 25 36
-84 -105 -141 -177 -173 -118 -59 -34 15 76 93 155 172 207 232 281 240 208 159 103 128 104 65 76 61 74 138 171 163 143 155 136 133 95 59 42 26 39 21 32 16 25 32
-63 -80 -99 -123 -167 -133 -86 -35 -24 87 83 140 235 221 249 284 279 241 224 89 85 123 93 103 116 66 138 172 152 159 153 143 129 92 42 18 18 47 48 37 31 32 24
-81 -89 -97 -116 -135 -168 -98 -53 -10 21 51 69 208 296 271 257 341 282 254 205 103 85 160 103 64 245 248 181 160 172 159 143 122 76 21 13 34 47 64 69 59 43 28
-88 -75 -78 -85 -89 -186 -122 -19 32 40 53 143 65 298 300 280 324 339 245 241 151 71 47 58 65 235 93 219 204 201 196 153 131 87 78 46 56 61 63 86 101 73 51
-133 -102 -83 -88 -85 -124 -135 -30 -16 80 77 96 43 199 253 218 300 349 283 288 282 50 31 94 91 78 128 136 199 262 223 190 124 97 94 64 74 81 66 62 88 82 82
-122 -122 -87 -94 -94 -101 -98 -57 7 18 89 97 120 235 203 187 282 307 348 358 263 91 106 69 60 55 84 9 95 247 350 241 174 113 85 82 86 95 80 65 59 87 87
-90 -139 -115 -105 -104 -96 -80 -56 -9 74 122 126 127 154 133 172 223 279 349 342 320 215 192 123 75 113 146 90 60 123 202 297 234 157 119 89 99 84 87 95 64 69 94
-51 -99 -130 -102 -99 -79 -92 -60 -22 43 64 103 106 149 164 157 196 285 303 325 313 271 209 212 138 95 93 131 41 96 91 205 206 138 130 150 128 94 82 106 115 86 92
9 -38 -81 -94 -95 -62 -78 -55 -5 21 88 91 149 108 156 135 211 251 275 310 320 272 241 210 175 99 89 62 71 102 115 121 151 160 153 140 159 118 113 114 137 129 104
Wind_Speed
43 43 53 50 40 38 37 33 33 29 26 24 21 23 27 31 34 34 32 32 28 24 22 20 19 17 18 18 18 19 21 22 26 28 28 31 32 32 31 32 36 38 39
49 52 57 56 45 40 36 31 30 27 23 20 20 24 26 26 29 32 29 28 26 24 22 17 16 16 17 18 17 18 19 21 26 25 29 31 28 27 29 32 34 37 36
49 51 54 55 52 50 37 29 28 26 23 18 17 18 20 22 26 27 24 23 22 22 21 15 13 14 15 15 15 15 17 21 22 22 25 21 21 21 22 27 32 35 34
48 49 53 55 54 48 33 29 28 27 24 19 16 18 19 20 21 21 21 20 21 19 20 15 10 9 13 14 14 13 15 19 20 20 19 17 16 17 20 24 32 31 32
49 48 53 53 50 46 29 31 32 30 29 22 15 16 17 18 18 17 19 18 18 18 16 8 4 9 10 13 11 11 14 15 15 17 16 15 13 15 20 25 31 29 28
49 49 53 52 49 47 36 33 33 32 31 25 14 14 16 17 17 15 13 15 14 15 7 3 8 6 7 10 10 7 8 8 11 13 17 14 15 16 18 21 31 31 30
51 51 52 51 50 44 39 38 36 33 33 32 19 10 12 15 13 12 16 14 14 17 20 14 9 6 11 9 6 5 5 4 7 13 17 15 16 16 17 21 30 33 28
50 52 52 52 49 47 41 43 41 39 35 34 34 15 6 7 10 18 15 12 16 17 15 17 10 9 10 7 6 3 2 3 5 13 16 16 21 17 19 19 29 31 22
53 53 54 54 52 50 48 46 43 44 42 34 35 32 19 13 11 15 9 15 19 21 22 16 16 11 13 11 8 7 5 6 6 12 13 14 19 21 16 17 26 33 27
56 56 56 55 53 51 51 52 47 47 44 39 35 39 42 18 12 5 6 13 15 18 18 20 11 11 17 17 21 15 10 8 9 12 11 13 19 19 17 15 19 28 26
57 58 59 57 55 53 50 52 51 48 46 42 40 43 46 37 25 17 0 11 17 19 21 15 4 19 22 25 22 10 11 17 7 11 12 13 17 19 15 14 15 28 30
59 57 57 57 56 54 51 51 51 50 46 45 43 44 45 49 45 4 4 12 18 19 21 26 25 25 38 38 28 17 20 15 14 11 12 13 15 17 15 14 14 27 25
58 57 58 57 55 54 52 51 51 51 47 46 45 46 48 51 53 25 7 8 7 15 7 24 11 26 33 40 34 28 24 21 17 15 10 12 14 14 13 14 15 22 25
58 58 58 58 56 54 52 51 52 51 51 49 49 46 48 49 51 40 23 11 9 4 1 14 13 22 32 40 37 31 28 24 18 17 9 11 12 11 10 8 16 24 24
59 59 59 58 57 56 54 54 52 52 52 50 48 46 47 47 50 42 42 31 25 17 12 14 20 18 36 40 38 31 27 25 14 13 11 9 10 9 8 10 10 18 20
60 60 60 60 59 56 55 55 53 52 52 51 50 49 47 48 48 47 48 49 41 36 30 24 21 20 37 44 38 33 30 25 17 11 10 11 9 8 6 5 8 13 18
61 61 61 60 60 58 56 55 55 53 51 51 50 51 50 48 51 54 62 51 53 44 39 36 25 34 36 47 40 36 28 23 18 14 12 12 10 9 7 2 2 10 17
63 63 63 62 61 59 58 56 54 53 51 50 49 51 51 51 53 52 51 44 46 50 44 36 26 29 30 43 45 40 35 27 22 18 17 15 15 13 11 3 5 2 11
64 65 65 64 63 61 59 57 54 54 52 50 51 51 51 50 51 50 44 45 51 53 39 41 36 20 28 33 43 40 38 32 25 24 21 18 19 16 20 8 11 6 2
62 64 65 65 64 61 60 58 56 54 53 48 51 53 51 49 50 48 44 46 51 59 42 41 48 24 31 34 43 41 39 36 30 29 26 22 21 21 22 16 15 21 13
63 65 66 67 65 62 62 61 59 58 55 53 52 55 50 49 48 47 44 41 40 57 41 33 36 33 28 30 41 40 40 42 38 37 34 31 27 24 26 22 22 26 26
63 65 67 66 65 62 60 60 58 59 57 54 53 53 49 49 48 46 44 40 43 48 49 24 29 27 31 19 47 42 50 50 45 42 41 38 32 31 30 31 28 27 31
63 65 67 68 65 61 59 59 58 55 55 55 54 54 51 50 49 46 45 43 42 41 41 36 22 31 33 33 45 42 47 52 43 45 47 45 41 37 34 36 36 32 31
64 64 66 66 65 60 57 57 56 56 58 58 57 53 53 51 52 50 48 47 46 43 41 35 25 32 32 27 37 53 51 48 47 50 51 52 51 47 41 36 40 40 36
62 64 63 63 62 59 55 54 54 56 57 58 56 56 53 53 51 51 50 49 49 46 40 42 40 25 42 48 42 41 38 49 43 43 51 56 56 56 51 44 39 43 42
63 64 63 62 61 58 55 55 56 56 57 58 58 57 55 54 55 52 52 50 51 49 45 44 44 40 35 40 45 43 41 37 51 49 53 52 61 58 54 55 50 49 47
Wind_Direction
314 297 318 324 3 10 9 323 323 335 351 8 27 76 95 95 95 94 91 91 81 71 64 61 60 52 51 51 53 57 60 58 58 57 55 59 60 59 54 48 47 44 45
315 322 329 342 352 14 22 323 325 327 346 9 39 69 88 88 92 96 92 84 78 73 68 57 52 51 57 61 61 63 62 59 60 59 63 60 56 51 48 45 40 44 42
324 324 331 344 348 347 359 311 312 317 327 356 43 61 76 85 92 91 84 78 74 71 69 58 49 58 63 65 69 65 62 63 61 60 54 47 43 36 27 33 37 45 40
332 329 332 341 350 356 340 306 305 302 309 333 29 65 74 81 83 80 74 74 76 67 65 61 53 62 71 75 73 71 68 66 63 56 45 34 21 19 23 23 41 40 42
337 337 339 345 351 356 312 320 308 297 286 307 359 47 63 75 72 67 63 49 53 54 55 14 30 81 85 83 80 77 71 66 54 46 35 18 360 11 20 32 43 38 39
345 344 345 344 336 339 314 314 310 295 289 295 354 46 62 73 71 64 24 29 43 50 25 303 84 108 106 94 91 83 68 53 41 34 31 7 7 18 21 23 48 49 50
349 348 349 345 341 330 309 315 306 300 284 280 310 11 71 81 67 10 347 26 69 59 72 88 116 145 118 105 124 102 64 32 30 36 32 359 15 20 18 29 52 59 54
347 347 345 340 334 332 310 309 303 304 296 280 274 308 4 27 3 338 351 49 59 71 65 103 116 151 147 130 140 143 101 18 331 28 19 14 41 22 33 30 60 64 46
352 348 344 339 331 325 323 309 304 300 297 295 278 276 293 311 333 332 33 92 87 87 80 81 126 159 190 197 221 233 258 283 318 13 5 1 35 40 31 34 60 74 66
346 345 342 336 329 323 321 316 304 299 297 295 290 274 267 296 307 21 77 101 93 84 78 91 146 186 209 225 240 246 258 262 295 353 328 353 32 36 44 39 55 68 64
342 341 337 332 328 323 322 317 309 301 298 299 297 284 266 275 288 284 213 119 107 95 90 79 201 216 222 226 235 236 253 246 321 325 325 18 19 35 45 50 52 75 79
337 336 337 332 330 327 321 320 321 314 298 295 296 289 277 266 268 224 218 147 129 114 107 107 129 224 219 224 234 238 247 256 280 309 334 18 3 31 53 63 64 81 68
336 335 334 332 330 328 323 317 316 307 299 298 298 294 281 267 260 277 228 173 159 132 98 121 140 226 227 227 234 241 246 256 273 287 341 12 7 30 52 74 72 79 80
337 335 331 333 328 326 324 318 309 307 296 296 295 297 284 274 264 270 268 228 220 229 293 136 152 233 231 232 236 243 246 255 271 276 313 24 15 14 47 62 82 90 85
333 333 331 330 327 321 320 318 312 306 308 286 288 295 290 277 270 267 264 262 257 251 280 279 254 221 233 235 239 243 249 254 265 277 289 348 7 13 43 86 78 85 77
332 331 328 327 324 320 315 315 311 305 303 293 284 286 288 281 273 271 260 254 257 255 263 278 268 222 236 235 240 243 248 253 257 272 285 301 356 349 359 82 86 81 85
327 327 327 324 321 316 311 312 308 304 301 298 295 294 294 289 282 272 251 255 254 256 257 266 275 248 240 237 239 240 245 248 254 261 272 289 315 332 306 293 288 92 96
325 324 323 321 319 315 309 305 305 303 299 294 298 294 294 293 289 281 274 259 258 255 255 260 266 249 239 238 237 239 242 248 251 254 264 278 288 299 291 270 268 106 101
323 321 321 319 315 312 308 302 300 297 299 293 293 293 297 296 292 287 279 267 258 256 255 258 262 234 231 235 236 239 242 246 247 253 261 270 276 285 277 274 265 259 123
325 321 318 317 313 309 307 301 295 296 291 296 293 291 294 298 292 290 284 284 261 250 260 253 261 249 228 234 235 240 243 245 249 253 259 265 272 273 272 273 268 265 266
326 324 319 315 313 308 306 300 294 289 293 285 294 289 290 296 297 289 287 285 275 249 261 259 265 258 221 242 238 242 246 247 250 253 256 262 266 270 268 270 268 266 263
318 321 320 315 311 308 305 300 292 287 286 282 290 289 289 292 292 290 289 287 276 269 256 254 251 241 246 239 242 238 239 245 251 255 257 259 263 265 266 266 267 266 263
315 316 315 315 309 305 304 300 294 288 286 282 289 285 286 290 286 287 290 288 280 284 268 256 255 251 244 251 242 247 243 244 242 255 255 258 260 262 266 265 265 267 265
320 316 314 314 309 303 303 299 295 288 281 281 282 283 278 284 282 284 285 282 277 276 266 271 264 258 249 255 258 249 254 249 248 254 258 257 258 259 263 266 265 265 266
329 321 316 313 311 305 299 298 295 290 283 281 282 279 276 281 281 282 285 283 279 272 280 268 268 269 254 248 258 248 258 246 251 263 259 257 256 259 261 263 265 265 266
334 327 319 313 310 308 301 297 294 290 286 280 280 279 280 280 282 280 287 283 280 276 279 274 273 271 263 260 253 251 254 252 252 258 265 262 260 260 261 261 262 264 267